Погода в Шипаково

Россия / Тюменская область     56°50′54″N   67°38′18″E
темп.,
°C
ветер,
м/с
пор.,
м/с
влажн.,
%
обл.,
%
осадки,
мм/ч
давл.,
гПа
погр.,
м
17 сентября, пт
пт1723:00+5зюз35775 0.0 99990
02:00+4зюз3888100 0.0 998205
05:00+4зюз3790100 0.0 998257
08:00+5зюз4892100 0.4 997820
11:00+5зюз5891100 0.9 996837
14:00+7з71079100 0.3 9961156
17:00+4зсз71296100 2.8 998943
20:00+4зсз71194100 0.3 999986
18 сентября, сб
сб1823:00+4зсз61192100 0.4 1001834
02:00+3з5119282 0.0 1003536
05:00+2з41190100 0.0 1004411
08:00+3з5984100 0.0 1004647
11:00+6з686842 0.0 10051047
14:00+8з4756100 0.1 10051589
17:00+8з455785 0.1 10041265
20:00+4з3780100 0.1 1005216
19 сентября, вс
вс1923:00+3зюз368560 0.1 1004162
02:00+1з4109477 0.0 1004275
05:000з5119418 0.0 1005367
08:00+2з51190100 0.0 1006775
11:00+3з71192100 0.2 1007836
14:00+2з51296100 0.3 1008742
17:00+3з61396100 0.6 1009620
20:00+4зсз51188100 0.3 1010844
20 сентября, пн
пн2023:00+4з6138093 0.4 1010777
02:00+3зсз6128471 0.0 1011897
05:00+1зсз61293100 0.1 1013838
08:00+2зсз6129187 0.1 1014704
11:00+3сз5991100 0.2 1017939
14:00+4сз698089 0.2 1019993
17:00+3сз5987100 0.4 1021809
20:00+3сз4990100 0.0 1022719
21 сентября, вт
вт2123:00+2сз4893100 0.1 1023635
02:00+2сз4892100 0.1 1024613
05:00+1сз4789100 0.1 1025774
08:00+1сз4683100 0.0 1025865
11:00+2зсз4573100 0.1 1025658
14:00+5зсз4661100 0.0 1024947
17:00+6з475999 0.0 1023980
20:00+2з33755 0.0 102240